EW7704 Weather Reports


Display with metric or nautical units.
time (UTC)temp
F
wind
direction
speed
MPH
gust
MPH
rain 1hr
in
rain 24hr
in
rain mn
in
humidity
%
barometer
mb
20260504210555 60 224 1.0 10.0 0.00 0.00 0.00 53 1002.5
20260504210053 61 209 5.0 11.0 0.00 0.00 0.00 44 1002.4
20260504205552 62 98 3.0 11.0 0.00 0.00 0.00 42 1002.2
20260504205052 64 105 3.0 10.0 0.00 0.00 0.00 40 1002.1
20260504204550 65 212 2.0 10.0 0.00 0.00 0.00 30 1001.8
20260504204050 66 172 3.0 10.0 0.00 0.00 0.00 28 1001.5
20260504203553 66 238 3.0 12.0 0.00 0.00 0.00 28 1001.1
20260504203100 67 19 4.0 14.0 0.00 0.00 0.00 28 1000.7
20260504202549 68 249 6.0 14.0 0.00 0.00 0.00 26 1000.2
20260504202049 70 360 3.0 14.0 0.00 0.00 0.00 25 1000.2
20260504201550 72 12 2.0 8.0 0.00 0.00 0.00 21 1000.3
20260504201050 72 9 3.0 8.0 0.00 0.00 0.00 22 1000.5
20260504200548 72 14 2.0 9.0 0.00 0.00 0.00 23 1000.4
20260504200048 72 360 3.0 9.0 0.00 0.00 0.00 24 1000.4
20260504195548 73 13 4.0 11.0 0.00 0.00 0.00 24 1000.5
20260504195047 74 13 3.0 11.0 0.00 0.00 0.00 23 1000.4
20260504194548 74 17 3.0 8.0 0.00 0.00 0.00 22 1000.3
20260504194047 74 15 3.0 8.0 0.00 0.00 0.00 22 1000.4
20260504193546 74 14 2.0 6.0 0.00 0.00 0.00 21 1000.3
20260504193046 74 16 2.0 8.0 0.00 0.00 0.00 21 1000.3
20260504192545 74 13 3.0 9.0 0.00 0.00 0.00 21 1000.3
20260504192045 74 16 3.0 10.0 0.00 0.00 0.00 21 1000.3
20260504191545 75 19 3.0 10.0 0.00 0.00 0.00 19 1000.3
20260504191044 76 219 4.0 10.0 0.00 0.00 0.00 20 1000.2
20260504190543 77 235 3.0 10.0 0.00 0.00 0.00 20 1000.2
20260504190042 77 211 3.0 10.0 0.00 0.00 0.00 19 1000.4
20260504185540 76 223 3.0 9.0 0.00 0.00 0.00 20 1000.4
20260504185039 76 191 4.0 9.0 0.00 0.00 0.00 22 1000.4
20260504184538 75 205 4.0 11.0 0.00 0.00 0.00 21 1000.6
20260504184037 74 217 4.0 10.0 0.00 0.00 0.00 23 1000.6
20260504183537 73 239 4.0 9.0 0.00 0.00 0.00 23 1000.7
20260504183036 73 360 3.0 9.0 0.00 0.00 0.00 24 1000.9
20260504182534 73 252 5.0 10.0 0.00 0.00 0.00 23 1000.9
20260504182033 73 188 4.0 10.0 0.00 0.00 0.00 23 1001.1
20260504181534 74 201 3.0 16.0 0.00 0.00 0.00 23 1001.2
20260504181032 74 232 4.0 10.0 0.00 0.00 0.00 23 1001.3
20260504180532 74 233 6.0 10.0 0.00 0.00 0.00 22 1001.4
20260504180030 74 190 3.0 9.0 0.00 0.00 0.00 25 1001.5
20260504175529 73 199 3.0 8.0 0.00 0.00 0.00 24 1001.6
20260504175028 73 207 3.0 9.0 0.00 0.00 0.00 26 1001.8
20260504174527 72 227 5.0 9.0 0.00 0.00 0.00 25 1001.9
20260504174026 71 201 4.0 13.0 0.00 0.00 0.00 26 1001.9
20260504173525 71 215 5.0 13.0 0.00 0.00 0.00 25 1001.9
20260504173123 70 205 5.0 13.0 0.00 0.00 0.00 26 1001.9
20260504172526 70 220 5.0 20.0 0.00 0.00 0.00 26 1001.8
20260504172024 70 266 6.0 10.0 0.00 0.00 0.00 26 1001.9
20260504171522 70 268 3.0 10.0 0.00 0.00 0.00 26 1001.8
20260504171021 70 201 4.0 11.0 0.00 0.00 0.00 27 1001.9
20260504170523 69 241 4.0 11.0 0.00 0.00 0.00 27 1002.0
20260504151057 62 213 2.0 4.0 0.00 0.00 0.00 35 1002.4
20260504150555 61 218 2.0 5.0 0.00 0.00 0.00 35 1002.4
20260504141042 51 141 0.0 2.0 0.00 0.00 0.00 51 1002.7
20260504140545 50 150 0.0 2.0 0.00 0.00 0.00 51 1002.7
20260504130541 45 360 0.0 2.0 0.00 0.00 0.00 58 1002.8
20260504110528 40 360 0.0 0.0 0.00 0.00 0.00 56 1002.8
20260504100521 40 360 0.0 1.0 0.00 0.00 0.00 57 1003.1
20260504081559 47 360 0.0 0.0 0.00 0.00 0.00 51 1003.6
20260504081058 47 360 0.0 0.0 0.00 0.00 0.00 50 1003.6
20260504080557 48 360 0.0 0.0 0.00 0.00 0.00 50 1003.7
20260504050534 57 350 0.0 2.0 0.00 0.00 0.00 34 1003.9
20260504045536 57 237 0.0 4.0 0.00 0.00 0.00 34 1004.0
20260504045033 58 228 0.0 4.0 0.00 0.00 0.00 33 1004.0
20260504044535 58 241 1.0 3.0 0.00 0.00 0.00 33 1003.9
20260504044033 59 239 0.0 3.0 0.00 0.00 0.00 32 1004.0
20260504043532 59 221 1.0 3.0 0.00 0.00 0.00 33 1004.1
20260504043032 60 291 0.0 2.0 0.00 0.00 0.00 32 1004.0
20260504042532 59 210 0.0 3.0 0.00 0.00 0.00 33 1003.7
20260504042031 60 227 0.0 2.0 0.00 0.00 0.00 33 1003.8
20260504041531 60 204 0.0 3.0 0.00 0.00 0.00 33 1003.7
20260504041032 60 220 0.0 3.0 0.00 0.00 0.00 32 1003.9
20260504040531 60 210 0.0 4.0 0.00 0.00 0.00 32 1003.9
20260504040031 60 237 1.0 4.0 0.00 0.00 0.00 32 1003.9
20260504035535 60 196 1.0 3.0 0.00 0.00 0.00 32 1004.0
20260504035030 60 232 0.0 3.0 0.00 0.00 0.00 32 1004.0
20260504034530 60 208 1.0 3.0 0.00 0.00 0.00 32 1004.0
20260504034030 60 216 0.0 2.0 0.00 0.00 0.00 32 1004.0
20260504033530 59 228 0.0 1.0 0.00 0.00 0.00 32 1004.1
20260504033036 58 113 0.0 0.0 0.00 0.00 0.00 33 1004.0
20260504032530 59 115 0.0 1.0 0.00 0.00 0.00 34 1004.0
20260504032032 59 115 0.0 1.0 0.00 0.00 0.00 33 1004.0
20260504031530 59 115 0.0 0.0 0.00 0.00 0.00 33 1004.0
20260504031029 60 115 0.0 0.0 0.00 0.00 0.00 33 1003.9
20260504030529 60 115 0.0 0.0 0.00 0.00 0.00 31 1003.9
20260504030030 61 115 0.0 0.0 0.00 0.00 0.00 31 1003.9
20260504025529 61 127 0.0 0.0 0.00 0.00 0.00 31 1003.8
20260504025032 61 129 0.0 0.0 0.00 0.00 0.00 30 1003.8
20260504024530 61 197 0.0 0.0 0.00 0.00 0.00 30 1003.8
20260504024029 62 185 0.0 0.0 0.00 0.00 0.00 29 1003.7
20260504023528 62 194 0.0 2.0 0.00 0.00 0.00 29 1003.7
20260504023029 63 194 0.0 2.0 0.00 0.00 0.00 28 1003.7
20260504022528 63 203 0.0 2.0 0.00 0.00 0.00 29 1003.8
20260504022029 63 254 0.0 2.0 0.00 0.00 0.00 29 1003.7
20260504021528 63 252 0.0 1.0 0.00 0.00 0.00 29 1003.6
20260504021027 64 250 0.0 0.0 0.00 0.00 0.00 28 1003.6
20260504020527 64 246 0.0 1.0 0.00 0.00 0.00 28 1003.6
20260504020029 64 248 0.0 1.0 0.00 0.00 0.00 27 1003.5
20260504015527 65 250 0.0 1.0 0.00 0.00 0.00 27 1003.5
20260504015030 65 252 0.0 2.0 0.00 0.00 0.00 27 1003.5
20260504014527 65 250 0.0 1.0 0.00 0.00 0.00 26 1003.5
20260504014026 66 258 0.0 1.0 0.00 0.00 0.00 26 1003.4
20260504013526 66 258 0.0 2.0 0.00 0.00 0.00 25 1003.5
20260504013034 66 259 0.0 1.0 0.00 0.00 0.00 25 1003.5
20260504012526 67 261 0.0 1.0 0.00 0.00 0.00 25 1003.5
20260504012025 67 258 0.0 2.0 0.00 0.00 0.00 24 1003.6
20260504011527 67 258 0.0 2.0 0.00 0.00 0.00 24 1003.7
20260504011023 67 251 0.0 2.0 0.00 0.00 0.00 23 1003.8
20260504010522 68 248 1.0 6.0 0.00 0.00 0.00 23 1003.8
20260504010022 68 286 1.0 6.0 0.00 0.00 0.00 23 1003.9
20260504005522 68 243 0.0 6.0 0.00 0.00 0.00 22 1003.9
20260504005022 68 206 2.0 6.0 0.00 0.00 0.00 22 1003.9
20260504004523 68 244 0.0 4.0 0.00 0.00 0.00 23 1004.0
20260504004020 68 360 1.0 3.0 0.00 0.00 0.00 22 1004.1
20260504003519 68 360 1.0 5.0 0.00 0.00 0.00 22 1004.1
20260504003025 68 360 1.0 4.0 0.00 0.00 0.00 22 1004.1
20260504002519 69 360 0.0 4.0 0.00 0.00 0.00 22 1004.0
20260504002019 69 360 2.0 4.0 0.00 0.00 0.00 22 1004.1
20260504001521 69 360 0.0 6.0 0.00 0.00 0.00 21 1004.1
20260504001017 68 360 1.0 12.0 0.00 0.00 0.00 21 1004.2
20260504000520 68 360 4.0 21.0 0.00 0.00 0.00 21 1004.4
20260504000045 69 360 7.0 21.0 0.00 0.00 0.00 22 1005.2
20260503235517 69 229 1.0 3.0 0.00 0.00 0.00 21 1004.7
20260503235018 69 250 0.0 4.0 0.00 0.00 0.00 21 1004.4
20260503234517 70 260 1.0 4.0 0.00 0.00 0.00 20 1004.4
20260503234018 70 281 0.0 2.0 0.00 0.00 0.00 20 1004.3
20260503233516 70 261 0.0 4.0 0.00 0.00 0.00 19 1004.4
20260503233016 71 246 1.0 4.0 0.00 0.00 0.00 19 1004.3
20260503232516 71 261 0.0 4.0 0.00 0.00 0.00 19 1004.4
20260503232016 71 250 1.0 4.0 0.00 0.00 0.00 19 1004.3
20260503231516 71 275 0.0 5.0 0.00 0.00 0.00 18 1004.3
20260503231016 71 211 1.0 5.0 0.00 0.00 0.00 19 1004.3
20260503230517 70 273 0.0 6.0 0.00 0.00 0.00 19 1004.3
20260503230019 70 261 1.0 9.0 0.00 0.00 0.00 18 1004.4
20260503225515 70 195 3.0 16.0 0.00 0.00 0.00 18 1004.5
20260503225016 70 196 8.0 16.0 0.00 0.00 0.00 19 1004.8
20260503224515 70 36 1.0 5.0 0.00 0.00 0.00 18 1004.6
20260503224015 70 202 2.0 5.0 0.00 0.00 0.00 19 1004.4
20260503223515 70 26 1.0 15.0 0.00 0.00 0.00 18 1004.2
20260503223015 70 76 6.0 15.0 0.00 0.00 0.00 17 1004.2
20260503222513 70 80 5.0 16.0 0.00 0.00 0.00 18 1004.6
20260503222012 70 179 4.0 16.0 0.00 0.00 0.00 18 1004.8
20260503221512 71 149 2.0 15.0 0.00 0.00 0.00 17 1004.6
20260503221015 71 240 3.0 27.0 0.00 0.00 0.00 16 1004.4
20260503220512 71 360 16.0 27.0 0.00 0.00 0.00 17 1004.8
20260503220012 72 360 6.0 17.0 0.00 0.00 0.00 14 1004.6
20260503215512 73 360 1.0 3.0 0.00 0.00 0.00 13 1004.6
20260503215013 74 360 1.0 4.0 0.00 0.00 0.00 13 1004.6
20260503214511 74 19 1.0 5.0 0.00 0.00 0.00 13 1004.6
20260503214017 74 17 2.0 5.0 0.00 0.00 0.00 13 1004.6
20260503213514 74 17 0.0 6.0 0.00 0.00 0.00 13 1004.6
20260503213010 74 360 2.0 6.0 0.00 0.00 0.00 13 1004.8
20260503212509 74 360 1.0 6.0 0.00 0.00 0.00 14 1004.8
20260503212009 75 15 2.0 8.0 0.00 0.00 0.00 14 1004.9
20260503211514 75 15 1.0 8.0 0.00 0.00 0.00 14 1004.8
20260503211010 75 14 0.0 6.0 0.00 0.00 0.00 14 1004.9